Change the Weather History Date:

Friday, August 23, 2013

  Actual Average Record
Temperature  
Mean Temperature 75 °F 76 °F  
Max Temperature 92 °F 94 °F 101 °F (2005)
Min Temperature 57 °F 59 °F 55 °F (2002)
Degree Days  
Heating Degree Days 0    
Month to date heating degree days 0  
Since 1 June heating degree days 0  
Since 1 July heating degree days 0  
Cooling Degree Days 10    
Month to date cooling degree days 294  
Year to date cooling degree days 1327  
Since 1 June cooling degree days 1150  
Growing Degree Days 24 (Base 50)    
Moisture  
Dew Point 51 °F    
Average Humidity 52    
Maximum Humidity 80    
Minimum Humidity 23    
Precipitation  
Precipitation 0.00 in 0.01 in 0.00 in (2015)
Month to date precipitation 0.01 0.01  
Year to date precipitation 3.53 8.03  
Since 1 July precipitation 0.01 0.03  
Snow  
Snow 0.00 in - - ()
Month to date snowfall 0.0  
Since 1 June snowfall 0.0  
Since 1 July snowfall 0.0  
Snow Depth 0.00 in    
Sea Level Pressure  
Sea Level Pressure 29.82 in    
Wind  
Wind Speed 7 mph (NW)    
Max Wind Speed 13 mph    
Max Gust Speed 17 mph    
Visibility 10 miles    
Events      
T = Trace of Precipitation, MM = Missing Value Source: NWS Daily Summary

Daily Weather History Graph

Daily Weather History Graph

Search for Another Location

Airport or City:

Trip Planner

Search our weather history database for the weather conditions in past years. The results will help you decide how hot, cold, wet, or windy it might be!

Date:

Astronomy

Aug. 23, 2013 Rise Set
Actual Time 6:24 AM PDT 7:41 PM PDT
Civil Twilight 5:57 AM PDT 8:08 PM PDT
Nautical Twilight 5:24 AM PDT 8:40 PM PDT
Astronomical Twilight 4:50 AM PDT 9:13 PM PDT
Moon 9:09 PM PDT (8/23) 9:19 AM PDT (8/23)
Length of Visible Light 14h 10m
Length of Day
13h 16m
Waning Gibbous, 91% of the Moon is Illuminated
Aug 23
Waning Gibbous
Aug 28
Last Quarter
Sep 5
New
Sep 12
First Quarter
Sep 19
Full

Hourly Weather History & Observations

Time (PDT) Temp. Dew Point Humidity Pressure Visibility Wind Dir Wind Speed Gust Speed Precip Events Conditions
12:53 AM 66.0 °F 55.0 °F 68% 29.85 in 10.0 mi WNW 8.1 mph - N/A   Clear
1:53 AM 64.0 °F 54.0 °F 70% 29.85 in 10.0 mi WNW 6.9 mph - N/A   Clear
2:53 AM 63.0 °F 53.1 °F 70% 29.84 in 10.0 mi NW 6.9 mph - N/A   Clear
3:53 AM 62.1 °F 53.1 °F 72% 29.84 in 10.0 mi NW 4.6 mph - N/A   Clear
4:53 AM 60.1 °F 53.1 °F 78% 29.84 in 10.0 mi WNW 4.6 mph - N/A   Clear
5:53 AM 59.0 °F 53.1 °F 81% 29.85 in 10.0 mi NW 3.5 mph - N/A   Clear
6:53 AM 57.9 °F 52.0 °F 81% 29.86 in 5.0 mi Calm Calm - N/A   Haze
7:53 AM 63.0 °F 53.1 °F 70% 29.87 in 7.0 mi NW 5.8 mph - N/A   Clear
8:53 AM 70.0 °F 51.1 °F 51% 29.88 in 9.0 mi NW 8.1 mph - N/A   Clear
9:53 AM 75.0 °F 50.0 °F 41% 29.88 in 10.0 mi Variable 5.8 mph - N/A   Clear
10:53 AM 80.1 °F 48.9 °F 34% 29.87 in 9.0 mi NW 6.9 mph - N/A   Clear
11:53 AM 82.0 °F 48.9 °F 31% 29.86 in 10.0 mi NW 10.4 mph - N/A   Clear
12:53 PM 86.0 °F 50.0 °F 29% 29.84 in 10.0 mi WNW 6.9 mph - N/A   Clear
1:53 PM 88.0 °F 50.0 °F 27% 29.82 in 10.0 mi NW 10.4 mph - N/A   Clear
2:53 PM 91.0 °F 48.0 °F 23% 29.79 in 10.0 mi West 9.2 mph - N/A   Clear
3:53 PM 91.0 °F 48.0 °F 23% 29.78 in 10.0 mi WNW 10.4 mph - N/A   Clear
4:53 PM 91.0 °F 48.0 °F 23% 29.75 in 10.0 mi NW 11.5 mph - N/A   Clear
5:53 PM 90.0 °F 50.0 °F 25% 29.74 in 10.0 mi NW 9.2 mph - N/A   Clear
6:53 PM 88.0 °F 48.0 °F 25% 29.73 in 10.0 mi NW 8.1 mph - N/A   Clear
7:53 PM 80.1 °F 50.0 °F 35% 29.75 in 10.0 mi WNW 6.9 mph - N/A   Clear
8:53 PM 75.0 °F 53.1 °F 46% 29.75 in 10.0 mi NW 5.8 mph - N/A   Clear
9:53 PM 72.0 °F 53.1 °F 51% 29.77 in 10.0 mi NW 5.8 mph - N/A   Clear
10:53 PM 70.0 °F 54.0 °F 57% 29.78 in 10.0 mi West 6.9 mph - N/A   Clear
11:53 PM 66.9 °F 55.9 °F 68% 29.78 in 10.0 mi WNW 4.6 mph - N/A   Clear